This is the latest recevied weather packets stored in our database for station/object N9CQL. If no packets are shown the sender has not sent any weather packets the latest 10 day(s).
| Time | Temp. | Humidity | Pressure | Rain* | Wind** | Luminosity | Snow |
|---|---|---|---|---|---|---|---|
| 1777489593 | 10° C | 81% | 1012.9 hPa | 0 mm | - | 64 W/m² | - |
| 1777489290 | 10° C | 81% | 1013 hPa | 0 mm | - | 61 W/m² | - |
| 1777488987 | 10° C | 82% | 1012.8 hPa | 0 mm | - | 86 W/m² | - |
| 1777488684 | 10° C | 83% | 1012.9 hPa | 0 mm | - | 85 W/m² | - |
| 1777488381 | 10° C | 83% | 1012.4 hPa | 0 mm | - | 83 W/m² | - |
| 1777488080 | 10° C | 83% | 1012.6 hPa | 0 mm | - | 62 W/m² | - |
| 1777487777 | 10° C | 83% | 1012.4 hPa | 0 mm | - | 56 W/m² | - |
| 1777487475 | 10.56° C | 83% | 1012.5 hPa | 0 mm | - | 39 W/m² | - |
| 1777487172 | 10.56° C | 82% | 1012.5 hPa | 0 mm | - | 31 W/m² | - |
| 1777486868 | 10.56° C | 81% | 1012.2 hPa | 0 mm | - | 22 W/m² | - |
| 1777486565 | 10.56° C | 82% | 1012.5 hPa | 0 mm | - | 49 W/m² | - |
| 1777486263 | 10.56° C | 81% | 1012.1 hPa | 0 mm | - | 58 W/m² | - |
| 1777485960 | 10.56° C | 81% | 1012.3 hPa | 0 mm | - | 65 W/m² | - |
| 1777485656 | 10.56° C | 82% | 1012.4 hPa | 0 mm | - | 66 W/m² | - |
| 1777485351 | 10.56° C | 81% | 1012.2 hPa | 0 mm | - | 46 W/m² | - |
| 1777485048 | 10.56° C | 80% | 1012.4 hPa | 0 mm | - | 45 W/m² | - |
| 1777484745 | 11.11° C | 80% | 1012.3 hPa | 0 mm | - | 29 W/m² | - |
| 1777484441 | 11.67° C | 79% | 1012.2 hPa | 0 mm | - | 55 W/m² | - |
| 1777484138 | 12.22° C | 78% | 1012 hPa | 0 mm | - | 48 W/m² | - |
| 1777483834 | 12.78° C | 76% | 1012.1 hPa | 0 mm | - | 42 W/m² | - |
| 1777483531 | 12.78° C | 75% | 1011.9 hPa | 0 mm | - | 93 W/m² | - |
| 1777483226 | 13.33° C | 74% | 1011.7 hPa | 0 mm | - | 160 W/m² | - |
| 1777482922 | 13.33° C | 73% | 1011.9 hPa | 0 mm | - | 218 W/m² | - |
| 1777482618 | 13.89° C | 66% | 1011.9 hPa | 0 mm | - | 180 W/m² | - |
| 1777482316 | 13.89° C | 64% | 1011.7 hPa | 0 mm | - | 196 W/m² | - |
* Rain latest hour (hover to see other rain measurements)
** Current wind speed in m/s (hover to see current wind gust speed)